TimeCST,TemperatureF,Dew PointF,Humidity,Sea Level PressureIn,VisibilityMPH,Wind Direction,Wind SpeedMPH,Gust SpeedMPH,PrecipitationIn,Events,Conditions,WindDirDegrees,DateUTC
12:54 AM,-0.9,-9.0,69,30.48,10.0,WNW,4.6,-,N/A,,Clear,290,2013-02-01 06:54:00
1:54 AM,-0.9,-8.0,72,30.47,10.0,Calm,Calm,-,N/A,,Clear,0,2013-02-01 07:54:00
2:54 AM,-2.0,-8.0,76,30.46,10.0,Calm,Calm,-,N/A,,Clear,0,2013-02-01 08:54:00
5:54 AM,3.0,-4.0,73,30.43,10.0,SSW,6.9,-,N/A,,Overcast,210,2013-02-01 11:54:00
6:54 AM,3.9,-4.0,70,30.41,10.0,South,10.4,-,N/A,,Overcast,190,2013-02-01 12:54:00
8:54 AM,6.1,-2.9,67,30.37,10.0,SSE,11.5,-,N/A,,Overcast,160,2013-02-01 14:54:00
9:54 AM,9.0,-0.9,64,30.35,10.0,SSE,15.0,-,N/A,,Overcast,160,2013-02-01 15:54:00
10:54 AM,14.0,1.9,59,30.32,10.0,South,15.0,-,N/A,,Overcast,170,2013-02-01 16:54:00
11:54 AM,16.0,3.9,59,30.25,10.0,South,25.3,-,N/A,,Overcast,170,2013-02-01 17:54:00
12:54 PM,18.0,7.0,62,30.22,10.0,South,17.3,-,N/A,,Scattered Clouds,180,2013-02-01 18:54:00
1:54 PM,21.0,10.0,63,30.18,10.0,South,16.1,-,N/A,,Partly Cloudy,170,2013-02-01 19:54:00
2:54 PM,25.0,14.0,63,30.14,10.0,South,17.3,-,N/A,,Clear,170,2013-02-01 20:54:00
3:54 PM,28.9,18.0,64,30.12,9.0,South,18.4,-,N/A,,Clear,180,2013-02-01 21:54:00
4:54 PM,28.9,19.0,67,30.09,9.0,South,17.3,-,N/A,,Clear,190,2013-02-01 22:54:00
5:54 PM,27.0,18.0,69,30.09,10.0,South,11.5,-,N/A,,Mostly Cloudy,170,2013-02-01 23:54:00
6:54 PM,26.1,18.0,71,30.08,10.0,South,15.0,-,N/A,,Mostly Cloudy,180,2013-02-02 00:54:00
7:54 PM,27.0,18.0,69,30.07,10.0,South,15.0,-,N/A,,Overcast,190,2013-02-02 01:54:00
8:54 PM,28.0,19.0,69,30.08,10.0,SSW,13.8,-,N/A,,Mostly Cloudy,200,2013-02-02 02:54:00
9:54 PM,28.0,19.9,72,30.09,10.0,SSW,10.4,-,N/A,,Overcast,210,2013-02-02 03:54:00
10:04 PM,28.4,19.4,69,30.04,10.0,SW,11.5,-,N/A,,Overcast,220,2013-02-02 04:04:00
10:11 PM,28.4,19.4,69,30.04,10.0,SSW,12.7,-,N/A,,Overcast,210,2013-02-02 04:11:00
10:54 PM,28.0,19.9,72,30.08,10.0,WSW,9.2,-,N/A,,Mostly Cloudy,250,2013-02-02 04:54:00
11:54 PM,30.9,23.0,72,30.09,10.0,NW,13.8,-,N/A,,Overcast,320,2013-02-02 05:54:00